Content
SEND FEEDBACK

Daily
Averages
Monthly
Summary
Philippines

BOOT, PHILIPPINES


Home > Asia > Philippines
Elevation: 36 feet     Latitude: 14 04N     Longitude: 121 03E

WEATHER
 
SELECT A DAY
Number of Records: 179,175;   Date Range: 7/1/96 - 12/27/14
 
SHARE

PRINT THIS DATA

[ ← Previous Day ]
WEATHER ALMANAC - FEBRUARY 1, 2013
[ Next Day → ]
[ °C ]   °F
Weather ElementAverageHighLow
Temperature82.8 °F90 °F (2:00 pm)76 °F (5:00 am)
Dewpoint72 °F74 °F (5:00 am)69.8 °F (1:00 am)
Humidity69 %90 % (5:00 am)43 % (2:00 pm)
Barometer29.98 in30.04 in (9:00 am)29.92 in (1:00 pm)
Wind Speed6.8 mph13.8 mph (3:00 pm)
Weather ElementAverage
Visibility6.1 mi
Wind DirectionESE (97.6 °)

Weather ElementTotal
Precipitation---
Cooling Degree Days18 (Base 65)
Growing Degree Days33 (Base 50)
Averaged from 31 records on February 1, 2013
WEATHER CONDITIONS BREAKOUT
WIND DIRECTION BREAKOUT
WEATHER BY HOUR - FEBRUARY 1, 2013
[ °C ]   °F
Local TimeTemperatureDewpointHumidityBarometerVisibilityWind DirectionWind SpeedGust SpeedPrecipitationEventsConditions
1:00 AM78.8 °F69.8 °F74 %29.98 in6.2 miSW (220°)3.5 mphMostly Cloudy
2:00 AM78.0 °F71.0 °F75 %29.98 in6.0 miSouth (180°)2.2 mphHaze
2:00 AM78.8 °F71.6 °F78 %29.98 in6.2 miVariable2.3 mphMostly Cloudy
3:00 AM78.8 °F73.4 °F83 %29.98 in6.2 miVariable2.3 mphMostly Cloudy
4:00 AM77.0 °F73.4 °F89 %29.95 in6.2 miSSE (150°)3.5 mphMostly Cloudy
5:00 AM76.0 °F74.0 °F90 %29.98 in6.0 miCalmHaze
5:00 AM77.0 °F73.4 °F89 %29.98 in6.2 miCalmScattered Clouds
6:00 AM77.0 °F73.4 °F89 %29.98 in6.2 miCalmMostly Cloudy
7:00 AM77.0 °F73.4 °F89 %30.01 in5.6 miCalmMostly Cloudy
8:00 AM80.0 °F73.0 °F75 %30.02 in6.0 miCalmHaze
8:00 AM80.6 °F73.4 °F79 %30.01 in6.2 miCalmPartly Cloudy
9:00 AM82.4 °F73.4 °F74 %30.04 in6.2 miENE (70°)3.5 mphScattered Clouds
10:00 AM86.0 °F71.6 °F62 %30.01 in6.2 miEast (80°)6.9 mphScattered Clouds
11:00 AM87.0 °F72.0 °F53 %30.01 in6.0 miESE (110°)6.7 mphPartly Cloudy
11:00 AM87.8 °F71.6 °F58 %30.01 in6.2 miESE (110°)8.1 mphPartly Cloudy
12:00 PM87.8 °F71.6 °F58 %29.98 in6.2 miESE (110°)8.1 mphPartly Cloudy
1:00 PM89.6 °F69.8 °F52 %29.92 in6.2 miSE (130°)9.2 mphPartly Cloudy
2:00 PM90.0 °F71.0 °F43 %29.92 in6.0 miSE (130°)8.9 mphScattered Clouds
2:00 PM89.6 °F69.8 °F52 %29.92 in6.2 miSE (130°)9.2 mphPartly Cloudy
3:00 PM89.6 °F71.6 °F55 %29.92 in6.2 miESE (120°)13.8 mphPartly Cloudy
4:00 PM87.8 °F71.6 °F58 %29.92 in6.2 miSE (140°)13.8 mphScattered Clouds
5:00 PM88.0 °F72.0 °F49 %29.92 in6.0 miESE (110°)13.4 mphPartly Cloudy
5:00 PM87.8 °F71.6 °F58 %29.92 in6.2 miESE (110°)13.8 mphScattered Clouds
6:00 PM84.2 °F73.4 °F70 %29.95 in6.2 miESE (110°)13.8 mphScattered Clouds
7:00 PM82.4 °F71.6 °F70 %29.98 in6.2 miEast (100°)9.2 mphPartly Cloudy
8:00 PM82.0 °F71.0 °F63 %30.00 in6.0 miESE (110°)11.2 mphHaze
8:00 PM82.4 °F71.6 °F70 %30.01 in6.2 miESE (110°)11.5 mphScattered Clouds
9:00 PM82.4 °F71.6 °F70 %30.01 in6.2 miSE (130°)9.2 mphRainLight Rain Showers
10:00 PM80.6 °F71.6 °F74 %29.98 in6.2 miSE (130°)9.2 mphMostly Cloudy
11:00 PM81.0 °F71.0 °F66 %30.01 in6.0 miESE (120°)8.9 mphHaze
11:00 PM80.6 °F71.6 °F74 %30.01 in6.2 miESE (120°)8.1 mphMostly Cloudy
Hourly data recorded from RPLL, located miles away from Boot, Philippines







STORIES FROM OUR PARTNERS